CZ-11 DEB (44320 NORAD) Tracking and Keplerian Element Data

This shows tracking and keplerian element data for the satellite.

Feedback or suggestion? Click here.




ElementValue
Catalog44320
NameCZ-11 DEB
Epoch Orbit404
Epoch Day185.91722732
Epoch Year2019
RAAN134.5131
Inclination44.906
Eccentricity0.0246286
Argument of Perigee116.2663
Mean Anonmoly246.3059
Mean Motion15.43073832
Decay Rate0.00104388
L11 44320U 19032L 19185.91722732 .00104388 11263-4 72431-3 0 9996
L22 44320 44.9060 134.5131 0246286 116.2663 246.3059 15.43073832 4042

Live tracking and technical data element details for CZ-11 DEB (NORAD 44320). CZ-11 DEB can be tracked NOW for your location showing map with azimuth and elevation plus other details from your city location.

Track the satellite on the map from your city or location and see movement details for azimuth, elevation, latitude, longitude, range, height, and movement on the map or in text.







IsCatalogInMostPopularTable: catalog: 44320, numindb: 8
Update: records affected: 1



GetName: 44320 CZ-11 DEB

Hit Count: updated at: Sun, 21 Jul 2019 21:05:17 GMT